Location: Skalnate Pleso
(49.1889°N, 20.2450°E)
Time: 03:11:54
(UTC+01:00)

Cosmos 1805 Rocket - Pass Details

Date: 19 November 2019
Orbit: 606 x 629 km, 82.5° (Epoch: 13 December)

Event Time Altitude Azimuth Distance (km) Brightness Sun altitude
Rises 06:05:17 0° 191° (SSW) 2,859 7.1 -8.1°
Reaches altitude 10° 06:07:30 10° 193° (SSW) 1,957 6.2 -7.8°
Maximum altitude 06:11:49 78° 280° (W) 627 3.5 -7.1°
Drops below altitude 10° 06:16:11 10° 7° (N) 1,969 6.0 -6.5°
Sets 06:18:25 0° 9° (N) 2,878 6.8 -6.1°
